Regional Weather Roundup
Issued by NWS

Home | Current Version | Previous Version | Text Only | Print | Product List | Glossary Off
Versions: 1 2 3 4 5 6 7 8 9 10 11 12 13 14 15 16 17 18 19 20 21 22 23 24 25 26 27 28 29 30 31 32 33 34 35 36 37 38 39 40 41 42 43 44 45 46 47 48 49 50

000
ASUS44 KMEG 191210
RWRTN
TENNESSEE HOURLY STATE WEATHER ROUNDUP
NATIONAL WEATHER SERVICE MEMPHIS TN
600 AM CST SUN NOV 19 2017

TNZ002-004-019-021-049-052-054-088>092-191300-
WEST TENNESSEE

CITY           SKY/WX    TMP DP  RH WIND       PRES   REMARKS
MEMPHIS INTL   PTCLDY    39  32  76 NW6       30.17R WCI  35
NWS MEMPHIS      N/A     39 N/A N/A MISG        N/A
JACKSON        PTCLDY    38  32  79 NW8       30.14R WCI  32
DYERSBURG      CLEAR     38  31  76 NW7       30.17R WCI  33
COVINGTON      CLEAR     37  30  75 NW9       30.17R WCI  31
UNION CITY     MOCLDY    36  27  69 NW7       30.15R WCI  30
BOLIVAR        PTCLDY    37  32  81 W5        30.14R WCI  34
PARIS          CLOUDY    37  28  70 CALM      30.11R
HUNTINGDON     PTCLDY    37  32  81 CALM      30.12R
LEXINGTON      CLOUDY    37  32  81 NW7       30.12R WCI  32
SELMER         PTCLDY    36  34  93 NW5       30.12R WCI  32
SAVANNAH       PTCLDY    37  34  87 NW3       30.11S
$$

TNZ008-025-027-028-033-062-065-066-191300-
NORTH MIDDLE TENNESSEE

CITY           SKY/WX    TMP DP  RH WIND       PRES   REMARKS
NASHVILLE      CLOUDY    42  31  64 NW6       30.07R
PORTLAND       CLOUDY    41  34  75 W7        30.04R
CLARKSVILLE    PTCLDY    37  29  72 NW10      30.09R WCI  30
SMYRNA         MOCLDY    40  32  73 NW6       30.08R
COOKEVILLE     CLOUDY    41  32  70 CALM      30.02R
GALLATIN       CLOUDY    41  34  75 W6G12     30.08R
CROSSVILLE     CLOUDY    36  29  75 W10       29.99R WCI  28
$$

TNZ061-075-076-078-094-096-097-191300-
SOUTH MIDDLE TENNESSEE

CITY           SKY/WX    TMP DP  RH WIND       PRES   REMARKS
FAYETTEVILLE   CLOUDY    39  32  75 NW6       30.05R WCI  35
TULLAHOMA      CLOUDY    41  34  75 NW7       30.04R
WINCHESTER     MOCLDY    39  30  70 N6        30.06R WCI  35
MCMINNVILLE    CLOUDY    41  34  75 CALM      30.04R
COLUMBIA       CLOUDY    41  34  75 CALM      30.07R
SHELBYVILLE    CLOUDY    41  32  70 NW6       30.06R
$$

TNZ017-018-042-046-047-191300-
NORTHEAST TENNESSEE

CITY           SKY/WX    TMP DP  RH WIND       PRES   REMARKS
TRI CITIES     MOCLDY    39  35  86 W10       29.91R WCI  32
ELIZABETHTON   CLOUDY    39  34  81 W7G16     29.90R WCI  34
$$

TNZ012-013-036-069-073-074-191300-
CENTRAL EAST TENNESSEE

CITY           SKY/WX    TMP DP  RH WIND       PRES   REMARKS
KNOXVILLE      MOCLDY    41  35  79 NW8       29.99R
OAK RIDGE      PTCLDY    43  32  65 CALM      30.00R
DOWNTOWN KNOXV CLOUDY    43  36  75 VRB6      30.00R
GATLINBURG     CLOUDY    41  37  87 CALM      29.99R
MORRISTOWN     CLOUDY    41  36  81 NW8       29.96R
$$

TNZ083-085-099-191300-
SOUTHEAST TENNESSEE

CITY           SKY/WX    TMP DP  RH WIND       PRES   REMARKS
CHATTANOOGA    CLOUDY    44  31  60 NW9       30.04R
$$

SKY/WX REPORTED AS FAIR MEANS FEW OR NO CLOUDS BELOW
12 THOUSAND FEET.




USA.gov is the U.S. government's official web portal to all federal, state and local government web resources and services.